Location: Civry
(47.2902°N, 4.6156°E)
Time: 21:13:44
(UTC+00:00)

ATLAS 5 CENTAUR R/B - Pass Details

Date: 09 April 2020
Orbit: 543 x 1116 km, 63.4° (Epoch: 01 May)

Event Time Altitude Azimuth Distance (km) Brightness Sun altitude
Rises 19:58:28 0° 231° (SW) 2,735 5.1 -15.8°
Reaches altitude 10° 20:00:36 10° 235° (SW) 1,880 4.3 -16.1°
Maximum altitude 20:04:44 57° 315° (NW) 729 2.2 -16.7°
Drops below altitude 10° 20:09:26 10° 35° (NE) 2,136 4.3 -17.4°
Sets 20:12:00 0° 39° (NE) 3,150 5.1 -17.7°
